Regional Weather Roundup
Issued by NWS

Home | Current Version | Previous Version | Graphics & Text | Print | Product List | Glossary Off
Versions: 1 2 3 4 5 6 7 8 9 10 11 12 13 14 15 16 17 18 19 20 21 22 23 24 25 26 27 28 29 30 31 32 33 34 35 36 37 38 39 40 41 42 43 44 45 46 47 48 49 50

000
ASUS43 KMPX 212210
RWRMN
WEATHER ROUNDUP FOR MINNESOTA
NATIONAL WEATHER SERVICE TWIN CITIES/CHANHASSEN MN
500 PM CDT THU AUG 21 2014


NOTE: "FAIR" INDICATES FEW OR NO CLOUDS BELOW 12,000 FEET WITH NO
SIGNIFICANT WEATHER AND/OR OBSTRUCTIONS TO VISIBILITY. N/A MEANS
CURRENT SKY AND/OR WEATHER CONDITIONS ARE NOT AVAILABLE.

MNZ060>063-068>070-212300-
   Twin Cities Metro

CITY           SKY/WX    TMP DP  RH WIND       PRES   REMARKS
TWIN CITIES    CLOUDY    81  73  76 NE8       29.79R
ST PAUL        CLOUDY    80  73  79 CALM      29.80R
CRYSTAL        CLOUDY    80  71  74 E7        29.78R
BLAINE         CLOUDY    77  73  88 E10       29.81R
LAKEVILLE      MOSUNNY   82  72  69 SW3       29.79R
EDEN PRAIRIE   PTSUNNY   87  74  64 CALM      29.78R HX  95
SOUTH ST PAUL  CLOUDY    81  72  75 N5        29.79R
LAKE ELMO      CLOUDY    77  72  83 E7        29.82R
$$
MNZ001>005-007-008-013>017-022>024-027-028-212300-
   Northwest Minnesota

CITY           SKY/WX    TMP DP  RH WIND       PRES   REMARKS
BEMIDJI        CLOUDY    73  65  78 E3        29.85R
HALLOCK        MOSUNNY   75  66  73 E5        29.82R
ROSEAU         MOSUNNY   72  64  78 E9        29.85S
WARROAD        PTSUNNY   68  64  88 E13       29.87S
THIEF RVR FALL CLOUDY    73  66  78 E8        29.82S
CROOKSTON      MOSUNNY   79  68  69 W3        29.81S
FOSSTON        PTSUNNY   79  70  73 E6        29.84S
DETROIT LAKES  MOSUNNY   73  68  83 SE5       29.84R
MOORHEAD       SUNNY     75  73  94 E3        29.81R
PARK RAPIDS    CLOUDY    73  66  78 SE6       29.85R
MAHNOMEN       CLOUDY    74  68  80 SE9       29.83R
$$
MNZ006-009>011-018-025>026-212300-
   North Central Minnesota

CITY           SKY/WX    TMP DP  RH WIND       PRES   REMARKS
BAUDETTE       CLOUDY    72  64  76 E9        29.87R
FLAG ISLAND    LGT RAIN  64  63  94 E7        29.86F
INTL FALLS     CLOUDY    68  62  81 SE9       29.89R
WASKISH        CLOUDY    73  66  78 CALM      29.85S
BIG FORK       MOSUNNY   75  66  73 SE5       29.87S
LONGVILLE      CLOUDY    70  66  88 E3        29.85S
GRAND RAPIDS   CLOUDY    70  63  78 E7        29.87S
CRANE LAKE     CLOUDY    64  63  94 CALM      29.92R
ORR            CLOUDY    70  61  73 CALM      29.88R
COOK           CLOUDY    68  61  77 SE3       29.90R
WALKER         CLOUDY    72  67  83 E7        29.85R
$$
MNZ012-019>021-037-212300-
   Northeast Minnesota

CITY           SKY/WX    TMP DP  RH WIND       PRES   REMARKS
DULUTH         CLOUDY    66  60  81 E16       29.89R
ELY            CLOUDY    64  57  77 E6        29.93R
HIBBING        CLOUDY    72  61  68 E8        29.89R
EVELETH        CLOUDY    70  61  73 E6        29.91R
DULUTH HARBOR  CLOUDY    63  61  94 NE21      29.88S
TWO HARBORS    CLOUDY    64  57  77 E13G18    29.89R
SILVER BAY     MOSUNNY   61  61 100 NE8       29.90S
GRAND MARAIS     N/A     64  60  87 NE12      29.92F
G MARAIS ARPRT CLOUDY    63  55  77 E8        29.97F
$$
MNZ029>031-032-039>041-046>048-054>057-064-212300-
   West Central Minnesota

CITY           SKY/WX    TMP DP  RH WIND       PRES   REMARKS
FERGUS FALLS   PTSUNNY   75  66  73 E5        29.81R
WHEATON        MOSUNNY   75  68  78 N3        29.82R
MORRIS         SUNNY     82  70  65 N5        29.80S
ALEXANDRIA     CLOUDY    73  69  87 E9        29.85R
ELBOW LAKE     CLOUDY    77  71  83 NE6       29.82R
WADENA         RAIN      70  68  94 E5        29.84S
GLENWOOD       MOSUNNY   73  70  88 E8        29.84R
APPLETON       SUNNY     84  70  61 N8        29.79S
BENSON         PTSUNNY   82  72  69 N8        29.80R
ORTONVILLE     CLOUDY    81  72  74 NW3       29.81R
MADISON        SUNNY     88  73  62 NW5       29.80R HX  96
WILLMAR        FAIR      82  70  65 N6        29.82R
$$
MNZ033>034-036-042>043-049>051-058-059-212300-
   Central Minnesota

CITY           SKY/WX    TMP DP  RH WIND       PRES   REMARKS
ST CLOUD       CLOUDY    77  71  82 VRB6      29.81R
SAUK CENTRE    CLOUDY    72  69  90 E6        29.83S
PAYNESVILLE    CLOUDY    74  70  88 NE6       29.83R
AITKIN         CLOUDY    72  64  78 E8        29.85R
PINE RIVER     CLOUDY    72  66  83 E7        29.88R
BRAINERD       CLOUDY    70  66  87 E6        29.85R
STAPLES        CLOUDY    70  66  88 SE5       29.85R
LONG PRAIRIE   CLOUDY    70  68  94 NE5       29.85R
LITTLE FALLS   DRIZZLE   70  68  94 E3        29.83S
LITCHFIELD     CLOUDY    81  75  83 NE6       29.81R
BUFFALO        CLOUDY    78  71  79 NE7       29.81R
MAPLE LAKE     CLOUDY    77  73  88 NE6       29.82R
$$
MNZ037-044-045-052-053-212300-
   East Central Minnesota

CITY           SKY/WX    TMP DP  RH WIND       PRES   REMARKS
PRINCETON      CLOUDY    75  70  83 E5        29.83R
MORA           CLOUDY    70  68  94 CALM      29.85S
CAMBRIDGE      SUNNY     77  66  69 E7        29.81R
RUSH CITY      CLOUDY    74  70  86 E3        29.83S
MOOSE LAKE     CLOUDY    64  61  88 NE6       29.85R
HINCKLEY       CLOUDY    72  70  94 E3        29.84S FOG
CLOQUET        CLOUDY    64  61  88 E6        29.88S
MCGREGOR       CLOUDY    68  64  88 E9        29.87R
$$
MNZ071>073-080-081-089-090-097-098-212300-
   Southwest Minnesota

CITY           SKY/WX    TMP DP  RH WIND       PRES   REMARKS
MONTEVIDEO     PTSUNNY   82  73  74 NE8       29.81R
GRANITE FALLS  PTSUNNY   83  74  73 N7        29.81R
CANBY          SUNNY     86  68  54 W9        29.82R
MARSHALL       PTSUNNY   86  72  62 N12       29.80R HX  92
REDWOOD FALLS  PTSUNNY   87  74  64 N8        29.79R HX  95
OLIVIA         PTSUNNY   82  72  69 N5        29.80R
PIPESTONE      SUNNY     84  70  61 NW13      29.84R
WINDOM         SUNNY     86  73  66 SW9       29.81R HX  93
WORTHINGTON    MOSUNNY   90  27  10 W7        29.84R
JACKSON        MOSUNNY   86  72  62 SW8       29.83S HX  92
TRACY          PTSUNNY   85  75  71 N6        29.81R HX  94
SLAYTON        SUNNY     86  73  64 NW5       29.83R HX  93
$$
MNZ065>067-074>077-082>085-091>093-212300-
   South Central Minnesota

CITY           SKY/WX    TMP DP  RH WIND       PRES   REMARKS
MANKATO        PTSUNNY   84  70  61 S9G17     29.79R
NEW ULM        MOSUNNY   86  79  79 NW7       29.78R HX  99
ST JAMES       MOSUNNY   90  73  58 S9        29.79  HX  98
FAIRMONT       MOSUNNY   88  70  55 MISG      29.82R HX  92
GLENCOE        CLOUDY    85  74  69 N5        29.78R HX  93
FARIBAULT      CLOUDY    88  66  48 SW5       29.81R HX  90
OWATONNA       SUNNY     86  72  62 S9        29.82R HX  92
WASECA         CLOUDY    82  68  61 SW8       29.83R
ALBERT LEA     MOSUNNY   86  70  58 SW7G18    29.83R HX  90
$$
MNZ078>079-086>088-094>096-212300-
   Southeast Minnesota

CITY           SKY/WX    TMP DP  RH WIND       PRES   REMARKS
ROCHESTER      CLOUDY    82  72  71 S9        29.85R
RED WING       PTSUNNY   82  72  69 SE6       29.79R
STANTON        PTSUNNY   85  71  64 S6        29.78S HX  90
DODGE CENTER   PTSUNNY   84  73  70 SW9       29.84R HX  91
WINONA         MOSUNNY   82  70  65 S6        29.83R
AUSTIN         MOSUNNY   84  72  65 SW9       29.83S
PRESTON        MOSUNNY   81  75  83 S9        29.87R
$$
ABBREVIATIONS USED IN REMARKS
   TC - TEMPERATURES IN CELSIUS
  WCI - WIND CHILL INDEX
   HX - HEAT INDEX
  VSB - VISIBILITY
$$



USA.gov is the U.S. government's official web portal to all federal, state and local government web resources and services.